Regional Weather Roundup
Issued by NWS

Home | Current Version | Previous Version | Text Only | Print | Product List | Glossary Off
Versions: 1 2 3 4 5 6 7 8 9 10 11 12 13 14 15 16 17 18 19 20 21 22 23 24 25 26 27 28 29 30 31 32 33 34 35 36 37 38 39 40 41 42 43 44 45 46 47 48 49 50

000
ASUS43 KMPX 300201
RWRMN
WEATHER ROUNDUP FOR MINNESOTA
NATIONAL WEATHER SERVICE TWIN CITIES/CHANHASSEN MN
900 PM CDT MON MAY 29 2017


NOTE: "FAIR" INDICATES FEW OR NO CLOUDS BELOW 12,000 FEET WITH NO
SIGNIFICANT WEATHER AND/OR OBSTRUCTIONS TO VISIBILITY. N/A MEANS
CURRENT SKY AND/OR WEATHER CONDITIONS ARE NOT AVAILABLE.

MNZ060>063-068>070-300300-
   Twin Cities Metro

CITY           SKY/WX    TMP DP  RH WIND       PRES   REMARKS
TWIN CITIES    MOCLDY    60  44  55 W8        29.85S
ST PAUL        MOCLDY    59  46  62 W7        29.85S
CRYSTAL        CLOUDY    59  43  55 NW14G25   29.85R
BLAINE         LGT RAIN  61  46  59 W6        29.84S
LAKEVILLE      MOCLDY    57  46  67 W5        29.86S
EDEN PRAIRIE   MOCLDY    60  45  57 W12G21    29.86R
SOUTH ST PAUL  CLEAR     58  44  58 W3        29.85S
LAKE ELMO      MOCLDY    55  46  71 CALM      29.86R
$$
MNZ001>005-007-008-013>017-022>024-027-028-300300-
   Northwest Minnesota

CITY           SKY/WX    TMP DP  RH WIND       PRES   REMARKS
BEMIDJI        CLOUDY    47  42  81 W17       29.82S
HALLOCK        CLOUDY    45  43  93 N18       29.88S FOG
ROSEAU         CLOUDY    46  39  76 NW12      29.83R
WARROAD        CLOUDY    45  41  87 NW13      29.82S FOG
THIEF RVR FALL LGT RAIN  45  43  93 NW17G23   29.87S FOG
CROOKSTON      CLOUDY    48  45  87 N17       29.89S
FOSSTON        CLOUDY    45  43  93 NW14G22   29.87R
DETROIT LAKES  CLOUDY    50  45  81 NW10      29.89R
MOORHEAD       CLOUDY    54  46  76 NW10      29.90S
PARK RAPIDS    CLOUDY    51  42  71 NW12      29.84S
MAHNOMEN       CLOUDY    48  43  82 NW15      29.87S
$$
MNZ006-009>011-018-025>026-300300-
   North Central Minnesota

CITY           SKY/WX    TMP DP  RH WIND       PRES   REMARKS
BAUDETTE       CLOUDY    47  38  71 NW15G21   29.79R
FLAG ISLAND    CLOUDY    46  41  81 NW17      29.78S
INTL FALLS     CLOUDY    49  38  65 NW15G21   29.75S
WASKISH        CLOUDY    48  39  71 NW13      29.80S
BIG FORK       CLOUDY    52  39  62 NW8       29.78R
LONGVILLE      CLOUDY    52  45  76 W8        29.81S
GRAND RAPIDS   CLOUDY    53  43  68 W9        29.80S
CRANE LAKE     CLOUDY    48  41  76 W3        29.76R
ORR            CLOUDY    50  39  66 NW7       29.73S
COOK           CLOUDY    52  41  66 W7        29.75F
WALKER         CLOUDY    50  42  74 NW7G17    29.82R
$$
MNZ012-019>021-037-300300-
   Northeast Minnesota

CITY           SKY/WX    TMP DP  RH WIND       PRES   REMARKS
DULUTH         CLOUDY    52  45  77 W7        29.75S
ELY            CLOUDY    50  43  76 W8        29.73S
HIBBING        CLOUDY    51  42  71 W9        29.76R
EVELETH        CLOUDY    53  40  61 W9        29.76S
DULUTH HARBOR  PTCLDY    55  48  76 SW5       29.77S
TWO HARBORS    CLEAR     54  46  76 W3        29.73S
SILVER BAY     PTCLDY    52  46  82 CALM      29.71S
GRAND MARAIS     N/A     55  47  74 W9        29.67R
G MARAIS ARPRT CLOUDY    48  43  81 W9G23     29.68R
$$
MNZ029>031-032-039>041-046>048-054>057-064-300300-
   West Central Minnesota

CITY           SKY/WX    TMP DP  RH WIND       PRES   REMARKS
FERGUS FALLS   CLOUDY    52  50  93 NW10      29.89R
WHEATON        CLOUDY    55  45  67 W8        29.94S
MORRIS         CLOUDY    55  46  71 NW12      29.91R
ALEXANDRIA     CLOUDY    51  48  89 NW9       29.90R
ELBOW LAKE     CLOUDY    52  48  84 NW12      29.91S
WADENA         CLOUDY    50  46  87 W6        29.86S
GLENWOOD       LGT RAIN  52  48  87 NW14G25   29.90S
APPLETON       CLOUDY    59  46  63 NW6       29.92S
BENSON         CLOUDY    57  45  62 N12G20    29.92S
ORTONVILLE     CLOUDY    59  41  51 NW10G18   29.93S
MADISON        CLOUDY    61  43  51 NW9       29.93S
WILLMAR        FAIR      55  46  71 NW8       29.92S
$$
MNZ033>034-036-042>043-049>051-058-059-300300-
   Central Minnesota

CITY           SKY/WX    TMP DP  RH WIND       PRES   REMARKS
ST CLOUD       CLOUDY    52  52 100 W6        29.85F
SAUK CENTRE    CLOUDY    53  46  76 W16       29.89R
PAYNESVILLE    CLOUDY    55  45  67 W10       29.89S
AITKIN         DRIZZLE   52  45  76 W3        29.80F
PINE RIVER     CLOUDY    52  46  82 W9        29.86F
BRAINERD       LGT RAIN  54  45  71 W14       29.84R
STAPLES        CLOUDY    52  43  71 NW12G20   29.86S
LONG PRAIRIE   RAIN      52  46  82 SW14G21   29.88S
LITTLE FALLS   CLOUDY    54  46  76 W5        29.86S
LITCHFIELD     CLOUDY    57  48  72 W9        29.89S
BUFFALO        CLOUDY    57  45  64 W12G20    29.87S
MAPLE LAKE     CLOUDY    56  48  73 W6        29.87S
HUTCHINSON     CLOUDY    57  50  77 W8        29.90S
$$
MNZ037-044-045-052-053-300300-
   East Central Minnesota

CITY           SKY/WX    TMP DP  RH WIND       PRES   REMARKS
PRINCETON      PTCLDY    54  48  82 W7        29.85S
MORA           PTCLDY    54  43  66 W7        29.83F
CAMBRIDGE      MOCLDY    59  45  58 W7        29.82S
RUSH CITY      MOCLDY    54  46  74 CALM      29.83R
MOOSE LAKE     CLOUDY    54  45  71 W6        29.79R
HINCKLEY       FAIR      52  46  82 SW6       29.81S
CLOQUET        CLEAR     54  39  58 W8        29.77S
MCGREGOR       MOCLDY    52  46  82 CALM      29.80F
$$
MNZ071>073-080-081-089-090-097-098-300300-
   Southwest Minnesota

CITY           SKY/WX    TMP DP  RH WIND       PRES   REMARKS
MONTEVIDEO     CLOUDY    57  52  82 N5        29.92F
CANBY          PTCLDY    56  45  66 CALM      29.95S
MARSHALL       PTCLDY    56  47  71 NW8       29.94S
REDWOOD FALLS  PTCLDY    57  43  59 NW9       29.92S
OLIVIA         MOCLDY    55  46  71 NW10      29.90F
PIPESTONE      CLEAR     57  45  62 NW6       29.97S
WINDOM         PTCLDY    54  48  82 W8        29.95S
WORTHINGTON    CLEAR     53  47  79 W8        29.97S
JACKSON        PTCLDY    52  46  82 CALM      29.97S
TRACY          CLEAR     56  50  80 W6        29.95S
SLAYTON        CLEAR     56  46  68 W9        29.96F
$$
MNZ065>067-074>077-082>085-091>093-300300-
   South Central Minnesota

CITY           SKY/WX    TMP DP  RH WIND       PRES   REMARKS
MANKATO        CLOUDY    57  47  69 NW12G20   29.91R
NEW ULM        PTCLDY    57  45  62 NW10G20   29.91S
FAIRMONT       LGT RAIN  55  49  80 W14       29.96R
GLENCOE        MOCLDY    58  52  82 W10       29.89S
FARIBAULT      CLOUDY    59  46  63 W5        29.88S
OWATONNA       PTCLDY    57  46  67 W9        29.89S
WASECA         DRIZZLE   54  48  82 W12       29.91R
ALBERT LEA     PTCLDY    57  52  82 W7        29.91R
$$
MNZ078>079-086>088-094>096-300300-
   Southeast Minnesota

CITY           SKY/WX    TMP DP  RH WIND       PRES   REMARKS
ROCHESTER      PTCLDY    56  49  77 W10       29.89R
RED WING       CLEAR     57  45  62 NW5       29.85R
STANTON        PTCLDY    57  45  64 W3        29.86R
DODGE CENTER   CLEAR     57  45  62 W7        29.88S
WINONA         CLOUDY    59  50  72 W7        29.86R
AUSTIN         PTCLDY    54  50  87 W6        29.90S
PRESTON        CLEAR     55  47  74 W16       29.89S
$$
ABBREVIATIONS USED IN REMARKS
   TC - TEMPERATURES IN CELSIUS
  WCI - WIND CHILL INDEX
   HX - HEAT INDEX
  VSB - VISIBILITY
$$



USA.gov is the U.S. government's official web portal to all federal, state and local government web resources and services.